Home > Time Zones > World Clock > Weather > Fiji > Nadi > Past weeks

Flag Weather past 2 weeks in Nadi, Fiji

Now
77 °F

Partly cloudy.


Feels Like: 78 °F
Forecast: 75 / 87 °F
Wind: 6 mph from East

Location: Nandi

Current Time: Nov 29, 2014 at 10:12:30 PM

Latest Report: Nov 29, 2014 at 9:00 PM


Visibility: N/A

Pressure: 29.80 "Hg

Humidity: 94%

Dew point: 75 °F

Location of NadiLocation

Historic Weather in Nadi — Graph

°F

Nadi temperature yesterday

Maximum temperature yesterday: 90 °F (at 11:00 AM)
Minimum temperature yesterday: 72 °F (at 4:00 AM)
Average temperature yesterday: 78 °F

Past Weeks' High & Low Weather Summary

 TemperatureHumidityPressure
High93 °F (Nov 21, 2:00 PM)100% (Nov 22, 4:00 AM)30.01 "Hg (Nov 22, 4:00 AM)
Low70 °F (Nov 16, 6:00 AM)38% (Nov 24, 3:00 PM)29.68 "Hg (Nov 25, 5:00 PM)
Average80 °F73%29.85 "Hg
* Reported Nov 14 9:00 PM — Nov 29 9:00 PM, Nadi, Weather by CustomWeather, © 2014

Note: Actual official high and low records may vary slightly from our data, if they occured in-between our weather recording intervals... More about our weather records

Advertising

Nadi weather history for previous 24 hours

 ConditionsComfort  
Time TempWeatherWind HumidityBarometerVisibility
9:00 PM
Nov 29
77 °FPartly cloudy.6 mph94%29.80 "HgN/A
8:00 PM77 °FPartly cloudy.6 mph94%29.77 "HgN/A
7:00 PM79 °FBroken clouds.5 mph89%29.74 "HgN/A
6:00 PM79 °FBroken clouds.3 mph89%29.74 "HgN/A
5:00 PM79 °FBroken clouds.6 mph94%29.71 "HgN/A
4:00 PM77 °FSprinkles. Broken clouds.7 mph94%29.71 "HgN/A
3:00 PM79 °FSprinkles. Broken clouds.8 mph94%29.74 "HgN/A
2:00 PM86 °FSprinkles. Broken clouds.13 mph70%29.74 "Hg5 mi
1:00 PM86 °FScattered clouds.12 mph66%29.74 "HgN/A
12:00 PM84 °FLight rain. Scattered clouds.10 mph66%29.77 "HgN/A
11:00 AM84 °FScattered clouds.7 mph66%29.77 "HgN/A
10:00 AM86 °FScattered clouds.3 mph62%29.77 "HgN/A
9:00 AM82 °FScattered clouds.5 mph74%29.77 "HgN/A
8:00 AM79 °FScattered clouds.5 mph79%29.77 "HgN/A
7:00 AM75 °FScattered clouds.3 mph94%29.74 "HgN/A
6:00 AM75 °FPartly cloudy.3 mph94%29.74 "HgN/A
5:00 AM75 °FPassing clouds.3 mph94%29.74 "HgN/A
4:00 AM73 °FPartly cloudy.6 mph100%29.74 "HgN/A
3:00 AM73 °FPartly cloudy.5 mph100%29.74 "HgN/A
2:00 AM73 °FPartly cloudy.6 mph100%29.77 "HgN/A
1:00 AM73 °FPartly cloudy.7 mph100%29.77 "HgN/A
12:00 AM73 °FPartly cloudy.6 mph94%29.80 "HgN/A
11:00 PM
Nov 28
73 °FLight rain. Partly cloudy.5 mph94%29.83 "HgN/A
10:00 PM73 °FPartly cloudy.8 mph100%29.80 "HgN/A
Weather by CustomWeather, © 2014

See weather overviewHow to use our weather pages